Orbital Elements at Epoch 2459200.5 (2020-Dec-17.0) TDB
Reference: JPL 21 (heliocentric ecliptic J2000)
Element | Value | Uncertainty (1-sigma) | Units |
e | .1371808330151305 | 3.4651e-08 | |
a | 2.616774298469608 | 1.3124e-08 | au |
q | 2.257803020392963 | 9.0656e-08 | au |
i | 4.347072633567111 | 4.0391e-06 | deg |
node | 260.880802785296 | 5.4996e-05 | deg |
peri | 168.320088830343 | 5.739e-05 | deg |
M | 17.79534547931994 | 1.7244e-05 | deg |
tp | 2459124.072131397119 (2020-Oct-01.57213140) | 7.3848e-05 | TDB |
period | 1546.136473102547 4.23 | 1.1631e-05 3.184e-08 | d yr |
n | .232838437138481 | 1.7516e-09 | deg/d |
Q | 2.975745576546253 | 1.4924e-08 | au |
|
| | Orbit Determination Parameters
Additional Information
|